Wolf Creek, OR

8:12 PM PDT on September 28, 2016 (GMT -0700)
Sexton Summit

Weather History for KSXT - January, 2013

Change the Weather History Date:

Thursday, January 31, 2013

  Actual Average Record
Temperature  
Mean Temperature 34 °F -  
Max Temperature 39 °F 39 °F 55 °F (2015)
Min Temperature 30 °F 30 °F 24 °F (1999)
Degree Days  
Heating Degree Days 30    
Moisture  
Dew Point 32 °F    
Average Humidity 93    
Maximum Humidity 100    
Minimum Humidity 73    
Precipitation  
Precipitation 0.00 in - - ()
Sea Level Pressure  
Sea Level Pressure 30.32 in    
Wind  
Wind Speed 5 mph (NE)    
Max Wind Speed 15 mph    
Max Gust Speed -    
Visibility 2 miles    
Events Fog    
Averages and records for this station are not official NWS values.
T = Trace of Precipitation, MM = Missing Value Source: NWS Daily Summary

Daily Weather History Graph

Daily Weather History Graph

Search for Another Location

Airport or City:

Trip Planner

Search our weather history database for the weather conditions in past years. The results will help you decide how hot, cold, wet, or windy it might be!

Date:

Astronomy

Jan. 31, 2013 Rise Set
Actual Time 7:28 AM PST 5:26 PM PST
Civil Twilight 6:58 AM PST 5:56 PM PST
Nautical Twilight 6:24 AM PST 6:29 PM PST
Astronomical Twilight 5:51 AM PST 7:03 PM PST
Moon 10:43 PM PST (1/31) 9:23 AM PST (1/31)
Length of Visible Light 10h 57m
Length of Day
9h 58m
Waning Gibbous, 79% of the Moon is Illuminated
Jan 31
Waning Gibbous
Feb 3
Last Quarter
Feb 9
New
Feb 17
First Quarter
Feb 25
Full

Hourly Weather History & Observations

Time (PST) Temp. Windchill Dew Point Humidity Pressure Visibility Wind Dir Wind Speed Gust Speed Precip Events Conditions
12:53 AM 32.0 °F 25.6 °F 30.2 °F 93% 30.36 in 0.5 mi North 6.9 mph - N/A Fog Fog
12:56 AM 32.0 °F 26.4 °F 30.9 °F 96% 30.43 in 0.5 mi North 5.8 mph - N/A Fog Fog
1:56 AM 32.0 °F 24.2 °F 30.9 °F 96% 30.42 in 0.5 mi NNE 9.2 mph - N/A Fog Fog
2:04 AM 33.8 °F 26.4 °F 32.0 °F 93% 30.35 in 1.5 mi NE 9.2 mph - N/A   Mostly Cloudy
2:07 AM 33.8 °F 27.7 °F 32.0 °F 93% 30.35 in 4.0 mi NNE 6.9 mph - N/A   Mostly Cloudy
2:16 AM 32.0 °F 28.7 °F 30.2 °F 93% 30.36 in 1.8 mi North 3.5 mph - N/A   Mostly Cloudy
2:24 AM 30.2 °F - 30.2 °F 100% 30.36 in 1.0 mi Calm Calm - N/A   Mist
2:34 AM 32.0 °F 27.5 °F 30.2 °F 93% 30.35 in 0.8 mi SE 4.6 mph - N/A   Mist
2:37 AM 33.8 °F 27.7 °F 30.2 °F 87% 30.35 in 1.2 mi SE 6.9 mph - N/A   Scattered Clouds
2:39 AM 33.8 °F 27.7 °F 30.2 °F 87% 30.34 in 3.0 mi SE 6.9 mph - N/A   Scattered Clouds
2:56 AM 34.0 °F - 32.0 °F 92% 30.41 in 6.0 mi Calm Calm - N/A   Partly Cloudy
3:40 AM 32.0 °F 27.5 °F 30.2 °F 93% 30.33 in 1.8 mi ESE 4.6 mph - N/A   Partly Cloudy
3:42 AM 32.0 °F 27.5 °F 30.2 °F 93% 30.32 in 1.0 mi SE 4.6 mph - N/A   Mist
3:56 AM 30.9 °F 24.3 °F 28.0 °F 89% 30.39 in 0.5 mi SE 6.9 mph - N/A Fog Light Freezing Fog
4:05 AM 30.2 °F 24.3 °F 28.4 °F 93% 30.33 in 0.2 mi SE 5.8 mph - N/A Fog Light Freezing Fog
4:45 AM 30.2 °F 24.3 °F 28.4 °F 93% 30.31 in 0.8 mi ESE 5.8 mph - N/A   Mist
4:49 AM 30.2 °F 24.3 °F 30.2 °F 100% 30.31 in 1.5 mi ESE 5.8 mph - N/A   Mostly Cloudy
4:52 AM 30.2 °F 24.3 °F 30.2 °F 100% 30.31 in 3.0 mi ESE 5.8 mph - N/A   Scattered Clouds
4:56 AM 32.0 °F 26.4 °F 30.0 °F 92% 30.38 in 8.0 mi ESE 5.8 mph - N/A   Scattered Clouds
5:56 AM 33.1 °F 28.7 °F 30.9 °F 92% 30.37 in 10.0 mi East 4.6 mph - N/A   Clear
6:56 AM 32.0 °F 26.4 °F 30.9 °F 96% 30.37 in 10.0 mi East 5.8 mph - N/A   Clear
7:29 AM 30.2 °F 25.4 °F 30.2 °F 100% 30.31 in 1.2 mi North 4.6 mph - N/A   Partly Cloudy
7:31 AM 30.2 °F 25.4 °F 28.4 °F 93% 30.31 in 0.8 mi North 4.6 mph - N/A   Mist
7:56 AM 30.0 °F 23.2 °F 28.0 °F 92% 30.39 in 0.2 mi North 6.9 mph - N/A Fog Light Freezing Fog
8:03 AM 30.2 °F 22.6 °F 28.4 °F 93% 30.31 in 0.8 mi NNE 8.1 mph - N/A   Mist
8:34 AM 30.2 °F 23.4 °F 30.2 °F 100% 30.32 in 1.8 mi NNE 6.9 mph - N/A   Mostly Cloudy
8:39 AM 30.2 °F 23.4 °F 30.2 °F 100% 30.32 in 10.0 mi NNE 6.9 mph - N/A   Scattered Clouds
8:56 AM 32.0 °F - 30.9 °F 96% 30.39 in 1.5 mi Calm Calm - N/A   Scattered Clouds
9:13 AM 33.8 °F - 32.0 °F 93% 30.32 in 2.0 mi Calm Calm - N/A   Mostly Cloudy
9:20 AM 33.8 °F - 32.0 °F 93% 30.32 in 1.0 mi Calm Calm - N/A   Mist
9:27 AM 33.8 °F 30.8 °F 33.8 °F 100% 30.32 in 0.5 mi ESE 3.5 mph - N/A Fog Fog
9:47 AM 35.6 °F - 33.8 °F 93% 30.32 in 1.5 mi Calm Calm - N/A   Mostly Cloudy
9:50 AM 35.6 °F - 35.6 °F 100% 30.32 in 3.0 mi Calm Calm - N/A   Mostly Cloudy
9:56 AM 35.1 °F - 35.1 °F 100% 30.38 in 4.0 mi Calm Calm - N/A   Mostly Cloudy
10:05 AM 35.6 °F - 33.8 °F 93% 30.32 in 2.0 mi Calm Calm - N/A   Scattered Clouds
10:07 AM 35.6 °F - 33.8 °F 93% 30.32 in 1.2 mi Calm Calm - N/A   Scattered Clouds
10:09 AM 35.6 °F - 33.8 °F 93% 30.32 in 0.8 mi Calm Calm - N/A   Mist
10:19 AM 33.8 °F - 33.8 °F 100% 30.32 in 0.2 mi Calm Calm - N/A Fog Fog
10:27 AM 33.8 °F - 33.8 °F 100% 30.32 in 0.8 mi Calm Calm - N/A   Mist
10:37 AM 33.8 °F - 33.8 °F 100% 30.32 in 0.2 mi Calm Calm - N/A Fog Fog
10:52 AM 35.6 °F 32.8 °F 33.8 °F 93% 30.32 in 0.5 mi East 3.5 mph - N/A Fog Fog
10:56 AM 35.1 °F - 35.1 °F 100% 30.38 in 1.2 mi Calm Calm - N/A   Mostly Cloudy
10:58 AM 35.6 °F - 33.8 °F 93% 30.32 in 3.0 mi Calm Calm - N/A   Mostly Cloudy
11:05 AM 35.6 °F - 35.6 °F 100% 30.32 in 1.8 mi Calm Calm - N/A   Mostly Cloudy
11:14 AM 35.6 °F - 33.8 °F 93% 30.32 in 1.2 mi Calm Calm - N/A   Mostly Cloudy
11:22 AM 35.6 °F 31.7 °F 33.8 °F 93% 30.32 in 0.2 mi ENE 4.6 mph - N/A Fog Fog
11:30 AM 35.6 °F - 33.8 °F 93% 30.32 in 1.0 mi Calm Calm - N/A   Mist
11:33 AM 35.6 °F 32.8 °F 33.8 °F 93% 30.31 in 2.0 mi Variable 3.5 mph - N/A   Mostly Cloudy
11:42 AM 35.6 °F 32.8 °F 33.8 °F 93% 30.31 in 7.0 mi East 3.5 mph - N/A   Mostly Cloudy
11:52 AM 35.6 °F 32.8 °F 35.6 °F 100% 30.31 in 2.5 mi Variable 3.5 mph - N/A   Mostly Cloudy
11:56 AM 37.0 °F 34.5 °F 35.1 °F 93% 30.37 in 7.0 mi East 3.5 mph - N/A   Scattered Clouds
12:11 PM 37.4 °F - 35.6 °F 93% 30.30 in 1.0 mi Calm Calm - N/A   Mist
12:18 PM 37.4 °F 34.9 °F 33.8 °F 87% 30.30 in 0.5 mi ENE 3.5 mph - N/A Fog Fog
12:22 PM 37.4 °F - 35.6 °F 93% 30.30 in 1.2 mi Calm Calm - N/A   Scattered Clouds
12:31 PM 37.4 °F 34.9 °F 33.8 °F 87% 30.30 in 1.0 mi East 3.5 mph - N/A   Mist
12:47 PM 37.4 °F 34.9 °F 33.8 °F 87% 30.29 in 2.0 mi ENE 3.5 mph - N/A   Mostly Cloudy
12:56 PM 37.0 °F 34.5 °F 34.0 °F 89% 30.35 in 2.5 mi East 3.5 mph - N/A   Mostly Cloudy
12:59 PM 35.6 °F 32.8 °F 33.8 °F 93% 30.29 in 1.0 mi ENE 3.5 mph - N/A   Mist
1:02 PM 35.6 °F 32.8 °F 33.8 °F 93% 30.29 in 0.2 mi ENE 3.5 mph - N/A Fog Fog
1:13 PM 37.4 °F - 33.8 °F 87% 30.29 in 1.0 mi Calm Calm - N/A   Mist
1:22 PM 37.4 °F 33.8 °F 33.8 °F 87% 30.29 in 0.8 mi ENE 4.6 mph - N/A   Mist
1:26 PM 37.4 °F 31.4 °F 33.8 °F 87% 30.29 in 2.5 mi ENE 8.1 mph - N/A   Haze
1:33 PM 39.2 °F - 33.8 °F 81% 30.28 in 10.0 mi Calm Calm - N/A   Mostly Cloudy
1:40 PM 37.4 °F 34.9 °F 33.8 °F 87% 30.28 in 9.0 mi ENE 3.5 mph - N/A   Scattered Clouds
1:56 PM 37.0 °F 34.5 °F 34.0 °F 89% 30.34 in 2.0 mi Variable 3.5 mph - N/A   Scattered Clouds
2:02 PM 37.4 °F 34.9 °F 33.8 °F 87% 30.28 in 1.8 mi Variable 3.5 mph - N/A   Mostly Cloudy
2:05 PM 37.4 °F - 33.8 °F 87% 30.28 in 4.0 mi Calm Calm - N/A   Mostly Cloudy
2:13 PM 37.4 °F - 35.6 °F 93% 30.27 in 1.5 mi Calm Calm - N/A   Mostly Cloudy
2:16 PM 37.4 °F - 35.6 °F 93% 30.27 in 0.8 mi Calm Calm - N/A   Mist
2:28 PM 37.4 °F 33.8 °F 33.8 °F 87% 30.27 in 0.2 mi ENE 4.6 mph - N/A Fog Fog
2:46 PM 35.6 °F 32.8 °F 33.8 °F 93% 30.28 in 0.5 mi Variable 3.5 mph - N/A Fog Fog
2:56 PM 36.0 °F - 34.0 °F 93% 30.34 in 0.2 mi Calm Calm - N/A Fog Fog
3:56 PM 34.0 °F 27.2 °F 34.0 °F 100% 30.35 in 0.2 mi North 8.1 mph - N/A Fog Fog
4:56 PM 34.0 °F 27.2 °F 33.1 °F 96% 30.35 in 0.2 mi North 8.1 mph - N/A Fog Fog
5:22 PM 33.8 °F 25.3 °F 30.2 °F 87% 30.28 in 1.8 mi North 11.5 mph - N/A   Scattered Clouds
5:29 PM 33.8 °F 25.8 °F 30.2 °F 87% 30.27 in 8.0 mi NNE 10.4 mph - N/A   Scattered Clouds
5:56 PM 34.0 °F 25.0 °F 30.0 °F 85% 30.34 in 10.0 mi North 12.7 mph - N/A   Clear
6:14 PM 33.8 °F 24.8 °F 30.2 °F 87% 30.27 in 1.5 mi NNE 12.7 mph - N/A   Partly Cloudy
6:21 PM 35.6 °F 26.2 °F 32.0 °F 87% 30.27 in 1.2 mi NNE 15.0 mph - N/A   Partly Cloudy
6:24 PM 37.4 °F 28.9 °F 32.0 °F 81% 30.27 in 4.0 mi NNE 13.8 mph - N/A   Haze
6:40 PM 33.8 °F 25.8 °F 32.0 °F 93% 30.27 in 1.0 mi North 10.4 mph - N/A   Mist
6:44 PM 33.8 °F 26.4 °F 32.0 °F 93% 30.27 in 0.2 mi North 9.2 mph - N/A Fog Fog
6:56 PM 33.1 °F 25.5 °F 32.0 °F 96% 30.34 in 0.2 mi North 9.2 mph - N/A Fog Fog
7:17 PM 35.6 °F 27.5 °F 33.8 °F 93% 30.27 in 0.8 mi NNE 11.5 mph - N/A   Mist
7:19 PM 35.6 °F 28.0 °F 33.8 °F 93% 30.27 in 1.8 mi NNE 10.4 mph - N/A   Mostly Cloudy
7:21 PM 35.6 °F 28.0 °F 33.8 °F 93% 30.27 in 5.0 mi NNE 10.4 mph - N/A   Scattered Clouds
7:36 PM 33.8 °F 28.6 °F 32.0 °F 93% 30.27 in 0.8 mi North 5.8 mph - N/A   Mist
7:44 PM 33.8 °F 27.0 °F 30.2 °F 87% 30.27 in 0.2 mi NNE 8.1 mph - N/A Fog Fog
7:56 PM 32.0 °F 25.6 °F 32.0 °F 100% 30.36 in 0.2 mi North 6.9 mph - N/A Fog Fog
8:56 PM 32.0 °F 28.7 °F 30.9 °F 96% 30.35 in 0.2 mi North 3.5 mph - N/A Fog Fog
9:38 PM 33.8 °F 28.6 °F 32.0 °F 93% 30.27 in 0.5 mi East 5.8 mph - N/A Fog Fog
9:41 PM 33.8 °F 28.6 °F 32.0 °F 93% 30.27 in 1.5 mi East 5.8 mph - N/A   Scattered Clouds
9:43 PM 33.8 °F 29.6 °F 32.0 °F 93% 30.27 in 4.0 mi ENE 4.6 mph - N/A   Scattered Clouds
9:56 PM 34.0 °F 29.8 °F 30.9 °F 89% 30.33 in 10.0 mi ESE 4.6 mph - N/A   Partly Cloudy
10:56 PM 37.0 °F 32.4 °F 32.0 °F 82% 30.32 in 10.0 mi SE 5.8 mph - N/A   Clear
11:56 PM 37.9 °F 35.5 °F 30.0 °F 73% 30.31 in 10.0 mi East 3.5 mph - N/A   Clear